Lapse_Rate
6.5 6.5 6.5 6.5 6.5 6.5 6.5 6.5 6.5 6.5 6.5 6.5 6.5 6.5 5.9 6.3 7.0 7.0 7.1 6.7 5.9 4.2 2.5 1.8 2.5 3.4 5.0 5.0 6.1 5.8 5.8 8.1 7.3 5.2 3.4 4.3 3.1 2.4 2.9 2.3 2.5 2.9 1.1 1.5
6.5 6.5 6.5 6.5 6.5 6.5 6.5 6.5 6.5 6.5 6.5 6.5 6.0 5.5 6.0 6.5 6.9 7.0 7.0 6.7 6.2 5.8 5.3 3.9 4.4 5.0 5.3 5.5 5.9 6.1 7.8 7.8 7.9 5.6 3.9 3.2 2.9 2.3 2.1 2.7 2.7 2.5 2.3 1.2
6.5 6.5 6.5 6.5 6.5 6.5 6.5 6.5 6.5 6.5 6.5 6.5 6.5 6.5 6.0 6.0 6.6 6.8 6.9 6.5 6.1 6.1 5.8 5.8 5.0 5.8 5.6 6.2 6.1 6.0 7.0 6.8 7.7 6.5 4.7 3.3 3.1 2.2 1.6 1.9 3.3 2.4 1.2 1.2
6.5 6.5 6.5 6.5 6.5 6.5 6.5 6.5 6.5 6.5 6.5 6.5 6.5 6.2 6.0 6.0 6.1 6.4 6.4 6.3 6.2 5.9 5.7 5.7 5.3 5.6 6.2 6.3 6.1 5.9 6.9 6.8 7.5 7.2 5.4 3.9 3.2 2.1 1.5 1.6 2.9 3.3 2.6 0.1
6.5 6.5 6.5 6.5 6.5 6.5 6.5 6.5 6.5 6.5 6.5 6.6 6.9 6.3 6.0 6.5 6.4 5.9 5.4 5.4 5.2 5.5 5.4 5.4 5.7 6.1 5.9 5.4 5.8 5.8 6.7 6.6 7.1 7.4 6.0 4.5 3.0 3.0 2.1 1.7 1.6 2.5 2.3 1.2
6.5 6.5 6.5 6.5 6.5 6.4 6.5 6.5 6.5 6.5 6.5 6.5 6.5 6.5 6.5 6.3 6.0 5.3 5.1 5.2 5.1 5.6 5.4 5.3 6.0 6.0 5.4 5.3 5.9 6.3 6.8 6.6 6.4 7.2 6.3 5.1 4.1 4.0 3.2 2.5 2.6 3.0 2.4 1.5
6.5 6.5 6.5 6.5 6.5 6.1 6.5 6.5 6.5 6.4 6.6 6.4 6.4 5.0 5.6 6.1 6.1 5.6 5.5 5.5 5.5 5.6 5.6 5.7 6.2 6.1 5.4 5.5 6.3 6.9 7.3 6.6 5.8 6.4 6.8 5.6 4.3 4.2 4.0 3.1 2.6 2.6 3.0 3.3
6.5 6.5 6.5 6.3 6.4 6.5 6.5 6.7 6.0 5.7 5.6 6.3 6.2 6.2 6.1 6.2 5.6 4.9 4.6 5.0 5.2 5.0 5.5 5.4 5.8 6.7 5.8 5.5 6.2 6.9 7.6 6.6 5.9 5.9 6.4 5.9 4.6 4.5 5.3 4.4 3.5 3.3 3.3 3.5
6.5 6.5 6.3 5.6 5.6 6.4 7.0 6.6 6.6 5.6 5.9 5.8 5.9 6.2 6.2 5.6 4.8 4.9 5.0 4.9 5.2 5.0 4.9 5.1 5.6 6.8 5.6 5.7 6.1 6.5 7.1 7.0 6.2 6.1 6.4 6.2 5.2 4.8 5.6 5.8 5.4 5.3 4.8 4.7
6.5 6.5 6.5 6.8 6.8 7.0 6.3 5.8 6.1 5.8 5.9 5.6 5.7 5.4 5.1 4.7 4.7 4.6 4.5 4.5 5.2 4.4 4.1 4.5 5.6 5.9 5.5 5.6 6.0 6.4 6.7 6.4 6.5 6.5 6.5 6.3 5.7 6.0 6.4 5.8 6.6 6.3 5.8 5.5
6.5 6.5 6.8 7.0 6.8 6.5 6.9 6.7 6.7 6.9 6.5 5.6 4.8 4.6 4.5 4.7 4.7 4.7 4.8 4.6 4.8 4.4 4.8 5.5 5.5 5.4 5.3 5.6 6.3 6.8 6.6 6.5 6.3 6.6 6.5 6.5 6.7 6.3 6.1 5.9 6.8 6.8 6.3 5.9
6.5 6.6 6.5 6.9 7.5 6.8 5.7 5.5 5.1 4.9 5.7 5.7 4.8 4.9 4.8 4.3 4.6 4.5 4.4 4.7 5.0 5.0 5.2 5.3 5.3 5.1 5.1 5.8 6.4 7.2 6.5 6.5 6.5 6.5 6.4 6.7 6.5 6.0 6.5 6.5 6.6 6.5 6.2 5.9
6.4 7.2 6.8 6.4 5.6 4.5 4.4 4.3 4.8 4.1 4.5 4.5 5.3 4.9 4.9 4.6 5.0 5.0 4.0 4.7 5.3 5.0 5.0 4.8 4.8 4.4 5.0 5.7 6.0 6.9 6.5 6.4 6.5 6.4 6.4 6.3 6.6 6.3 4.5 4.6 6.0 6.2 6.3 5.8
4.9 4.9 6.5 5.1 5.3 4.4 4.4 5.3 5.2 5.4 5.4 5.4 5.6 5.6 4.6 4.0 4.2 2.3 1.0 1.4 1.6 0.9 1.8 1.9 2.4 4.2 4.6 5.3 5.7 6.3 6.7 6.4 6.2 6.2 6.1 6.3 6.2 6.3 6.1 5.0 4.0 4.0 5.4 5.5
6.1 5.3 3.8 4.2 5.0 5.7 6.1 5.3 5.2 5.2 5.4 5.7 5.7 5.2 5.3 5.1 5.0 5.3 4.0 2.9 0.6 0.1 1.5 1.6 2.1 3.7 4.1 4.5 5.1 6.5 6.4 6.3 6.4 6.4 6.0 6.1 6.4 6.5 6.3 6.2 5.0 4.1 3.4 3.6
4.7 4.6 5.7 5.6 6.3 7.1 6.8 5.3 4.1 5.2 5.0 5.2 4.9 5.0 4.9 5.0 5.2 5.5 5.9 6.0 3.7 2.9 1.3 0.9 2.1 3.4 3.8 4.7 5.3 6.7 6.9 6.6 6.6 6.6 6.8 6.3 6.4 6.6 6.9 6.8 6.6 5.6 4.2 3.8
6.3 6.3 6.0 6.2 5.0 5.0 4.2 4.0 3.3 3.8 4.2 4.1 4.3 4.8 5.2 5.1 4.7 3.9 1.7 0.8 0.1 0.3 -1.0 -0.9 1.4 3.4 4.5 5.4 6.4 6.9 7.0 6.9 6.5 6.8 6.6 6.5 6.6 6.4 6.7 6.5 7.1 6.6 6.0 4.8
4.9 5.6 5.1 3.9 3.1 2.6 2.9 2.9 3.0 3.3 3.0 3.0 2.2 0.5 -0.2 0.5 0.9 -0.5 -1.8 -1.8 -0.1 -0.7 -0.0 1.0 3.7 4.3 5.1 6.0 6.6 6.7 6.8 6.9 6.8 7.2 7.0 6.3 6.5 6.7 6.4 6.5 6.6 6.6 6.4 5.8
4.3 3.7 3.3 2.7 2.0 1.9 2.4 2.4 1.6 0.6 -0.7 -0.9 -0.6 -1.0 -2.2 -2.7 1.4 0.2 -1.1 -0.4 -1.1 1.9 1.4 3.5 4.8 4.4 5.3 5.9 5.7 5.7 5.6 5.6 6.2 6.3 6.7 5.6 5.6 6.0 6.0 6.2 6.6 6.3 6.4 6.2
1.7 1.5 1.2 1.2 1.8 0.7 -0.2 0.4 0.6 0.5 0.1 -0.6 -2.0 -1.1 -0.7 -2.3 -0.2 -1.4 -1.2 -0.1 0.2 1.9 4.1 3.9 3.8 3.7 4.9 5.2 4.1 5.2 5.3 5.6 6.0 5.9 5.1 5.5 4.6 4.8 5.4 4.9 5.3 5.8 5.8 6.2
0.5 0.8 0.2 -0.1 -0.3 0.0 -0.1 -0.1 0.7 1.1 0.4 -1.0 -0.3 -1.1 -1.4 -3.2 -2.1 -1.6 0.9 2.1 2.4 3.3 3.4 2.6 2.6 2.8 4.0 4.0 4.3 3.8 3.7 5.0 5.2 5.3 5.9 4.3 4.4 3.6 4.7 5.1 4.3 5.6 5.2 5.4
-1.3 -1.0 -0.8 -0.5 -0.5 -1.2 -1.2 -0.0 0.3 -1.4 -1.5 -3.2 -5.2 -3.6 -0.5 -0.5 -0.3 -2.0 -3.4 1.0 1.9 0.4 1.6 1.8 1.8 -0.7 1.7 2.0 3.4 2.5 4.0 3.8 5.2 5.5 5.1 4.8 5.4 3.8 2.9 4.0 5.8 5.1 5.0 3.5
-1.5 -1.4 -1.7 -1.2 -1.1 -2.3 -2.1 -1.6 -3.0 -2.0 -2.1 -2.6 -2.7 -1.6 1.3 2.1 0.9 0.8 0.6 1.6 2.4 0.5 1.2 -0.8 -0.7 -0.2 -0.6 -0.1 0.1 0.1 0.9 2.0 4.1 5.3 5.6 4.4 2.4 3.4 5.5 4.1 4.4 3.1 1.5 1.6
-1.4 -1.2 -1.7 -1.9 -1.5 -0.3 -0.5 -3.6 -1.9 -1.8 -2.7 -4.1 -2.6 -1.4 2.4 1.4 -0.4 0.2 -0.1 -1.6 0.7 -1.5 -2.0 -2.2 -0.7 0.0 -1.2 -1.3 -1.0 -1.4 -0.8 -0.1 1.4 2.4 4.0 2.5 2.0 1.9 3.2 4.5 4.5 3.9 3.4 2.1
-0.7 -0.9 -0.8 -0.4 0.2 0.5 0.0 -1.0 -0.9 -3.1 -2.1 -0.9 -0.6 -0.8 2.8 1.2 1.4 0.2 -1.1 -0.6 1.6 0.7 -0.1 0.2 1.2 0.4 -3.4 -3.5 -3.1 -2.2 -2.0 -2.7 -1.7 0.7 1.7 2.9 2.8 2.3 2.2 1.4 0.7 3.8 2.3 3.8
0.3 0.4 0.5 0.7 1.5 1.8 1.7 1.7 1.4 0.2 0.8 -0.5 -0.3 -1.8 -1.6 -0.9 0.6 0.3 -0.8 0.4 0.7 0.7 0.4 -1.3 -1.1 -0.9 -2.7 -1.2 -1.6 -1.4 -1.1 -0.2 -1.0 -0.5 -0.9 -0.6 -1.1 1.3 1.8 3.1 3.4 0.9 0.3 2.8
1.1 1.3 2.0 2.5 3.4 3.3 2.6 2.1 1.7 1.5 1.9 1.7 1.7 -0.5 0.8 -1.8 -1.2 0.0 -0.7 -1.0 -0.6 -0.9 -1.3 -1.6 0.2 1.4 0.2 -1.4 -1.4 -0.1 1.3 1.4 2.0 0.7 -0.1 -1.4 -1.2 -2.3 -1.2 2.9 4.9 4.6 4.0 2.4
Wind_Speed
2 8 4 3 8 10 11 14 9 11 10 14 11 8 6 4 3 2 2 3 4 4 5 4 5 5 9 8 12 13 14 15 16 18 17 18 17 18 17 18 16 17 16 13
3 4 4 10 16 18 11 13 10 10 8 8 7 7 5 5 3 0 2 4 5 6 3 3 5 9 10 7 12 12 14 15 16 17 18 18 18 17 17 17 17 16 15 14
10 9 8 7 23 18 8 5 7 13 5 14 12 10 7 6 5 4 4 5 5 5 5 5 6 8 9 10 10 12 12 13 14 17 17 18 17 17 17 17 17 17 16 13
0 7 7 8 11 21 19 7 8 5 16 16 13 8 6 5 5 5 6 6 5 5 5 5 6 8 6 10 11 12 13 13 14 14 15 16 17 16 16 14 14 14 15 17
4 6 7 7 5 7 11 5 1 13 10 12 13 8 2 0 5 7 7 5 5 6 6 6 8 9 10 11 11 13 14 14 15 14 14 15 17 16 15 14 14 14 14 16
4 4 8 5 6 1 4 3 6 12 14 17 11 3 2 2 8 8 7 6 6 6 6 8 8 9 10 11 12 14 14 14 14 14 12 14 14 14 13 12 12 11 13 15
4 4 6 5 2 4 8 4 10 11 11 11 4 3 4 9 9 9 8 9 7 7 6 9 9 9 11 11 12 13 13 12 13 13 12 13 13 12 13 12 12 13 13 12
4 5 10 3 3 5 6 10 13 11 12 15 11 9 11 10 10 10 10 9 9 7 8 9 10 8 9 11 12 13 12 12 12 13 11 9 12 12 12 13 14 14 14 12
7 5 2 2 5 10 13 16 9 14 11 13 10 9 10 10 10 9 8 7 7 7 8 9 9 9 10 11 13 13 11 12 11 12 11 10 10 11 11 12 11 12 11 11
4 3 7 15 13 11 13 14 13 13 13 12 10 10 11 9 7 7 7 7 7 9 9 9 10 10 10 12 12 12 10 11 11 11 13 11 5 7 9 11 11 11 11 11
5 9 12 12 16 16 15 15 16 13 12 12 13 10 9 8 8 7 7 6 7 8 8 10 10 10 10 12 12 10 9 9 9 8 10 10 9 8 8 10 14 11 11 10
4 14 6 12 16 17 17 15 15 16 13 11 12 10 10 8 7 6 6 6 8 8 8 9 9 10 11 12 12 9 9 7 7 7 8 8 7 8 16 17 23 24 23 15
5 8 11 14 15 14 16 12 13 14 13 12 8 10 11 9 7 10 7 7 7 7 7 8 9 9 11 11 10 9 9 9 7 8 7 8 8 7 8 12 19 23 26 26
23 17 11 4 9 13 17 15 16 14 11 10 11 10 10 9 8 6 4 2 3 4 6 6 7 10 11 11 10 8 7 10 7 7 7 7 7 8 5 8 10 10 17 20
11 10 13 14 13 13 16 16 15 12 11 10 10 11 9 9 7 6 4 3 4 4 6 7 7 10 11 11 10 7 7 7 7 6 7 8 6 6 7 7 8 9 10 13
17 17 15 16 14 12 15 15 15 11 10 10 10 10 9 9 7 7 6 7 8 7 6 6 7 9 10 10 9 7 6 10 8 7 6 7 7 8 7 7 7 8 9 10
20 11 14 12 12 12 13 11 12 11 10 10 10 10 9 9 8 7 6 5 5 5 5 4 6 8 10 11 10 6 5 6 8 7 7 7 7 8 7 8 7 7 8 10
11 11 12 15 15 14 12 12 11 10 10 10 9 8 7 7 5 3 3 3 6 5 6 6 7 9 10 11 9 7 7 7 7 7 7 7 7 7 7 7 8 7 7 8
15 15 14 14 13 13 12 11 10 10 8 7 7 6 5 4 5 3 2 6 4 7 7 8 11 10 10 12 9 7 7 6 7 6 7 7 7 7 7 7 7 7 7 7
15 15 15 14 11 14 12 10 11 9 6 7 6 6 6 3 5 4 3 5 1 1 5 8 8 8 9 10 9 6 7 7 7 6 6 6 6 6 6 8 7 7 7 7
14 13 13 13 11 10 10 9 10 9 6 6 7 6 6 3 3 3 5 5 4 5 6 7 6 5 5 6 7 6 5 6 7 6 6 5 6 6 6 6 6 6 7 6
10 10 11 12 11 9 6 6 7 6 6 5 4 4 6 5 5 4 1 3 1 5 3 4 4 5 5 6 5 5 6 6 5 5 5 6 5 5 6 6 6 6 5 5
9 9 10 11 10 8 7 6 5 7 6 5 6 7 6 5 3 3 2 2 1 3 3 3 4 8 7 4 4 5 5 5 5 6 5 5 4 4 5 5 4 4 4 4
10 9 8 8 10 9 8 3 5 5 5 4 5 5 7 4 2 1 2 3 4 4 2 2 3 7 7 3 4 3 4 4 4 4 4 5 4 4 4 4 4 4 3 4
10 9 9 10 8 5 6 6 5 4 4 3 3 3 5 2 3 3 2 2 4 3 2 3 6 6 3 3 3 3 3 3 2 3 3 3 3 4 4 4 4 3 3 4
10 7 7 7 6 7 6 6 5 3 3 2 1 2 2 2 3 3 2 2 2 4 2 1 1 2 2 2 2 2 2 3 3 3 3 3 3 4 3 4 4 4 5 8
5 6 6 3 4 6 6 6 5 6 4 4 4 3 4 3 3 3 3 2 2 1 1 1 1 0 0 0 1 2 2 2 2 2 4 4 5 4 6 6 7 9 11 13
Wind_Direction
171 119 77 337 319 279 217 225 212 223 202 194 184 178 167 173 132 40 37 27 38 356 358 339 298 298 343 337 344 341 342 344 340 337 337 334 336 334 341 342 346 342 351 2
245 209 242 244 236 260 257 233 249 247 201 173 139 126 155 165 131 279 48 43 38 12 13 304 336 359 349 341 345 342 338 339 344 343 339 340 337 338 341 347 347 350 355 353
254 257 266 271 237 231 248 205 197 226 170 160 158 165 162 161 162 138 80 66 36 4 51 11 354 353 347 351 343 342 336 340 342 347 341 344 339 340 345 345 344 350 351 351
290 109 215 254 198 203 216 200 161 114 150 162 154 131 129 164 143 112 87 71 40 35 50 16 360 356 351 353 348 344 342 344 345 345 345 345 344 344 345 344 348 349 349 349
188 212 310 299 234 192 190 180 182 147 135 128 126 115 74 118 75 96 89 68 44 48 49 24 13 1 3 357 349 348 348 347 347 346 349 348 350 345 343 344 347 352 350 350
158 205 219 243 262 231 73 195 138 147 144 148 159 147 207 13 92 81 71 55 47 48 47 31 14 11 4 354 353 353 348 346 343 344 352 351 353 347 344 349 348 351 354 358
196 231 274 249 256 128 200 196 118 129 136 140 130 151 144 99 88 81 69 54 43 40 38 25 12 15 5 351 354 342 343 344 343 344 349 353 350 354 353 353 358 1 2 360
183 225 257 232 18 170 133 109 116 110 112 105 101 93 96 94 84 71 57 45 39 31 27 20 8 9 1 354 342 337 341 345 344 346 348 353 353 353 0 5 7 3 1 7
181 210 218 15 107 113 130 117 122 115 112 108 99 91 100 90 78 67 57 45 39 33 22 12 3 7 359 347 345 338 343 344 344 345 348 353 354 354 0 8 13 5 3 2
114 38 105 106 91 106 109 112 114 114 115 111 106 95 88 84 73 62 46 34 31 25 19 9 4 356 354 349 347 337 347 343 345 348 352 354 351 353 4 7 9 12 7 6
77 97 88 102 106 111 110 110 107 104 108 106 101 92 100 87 73 58 44 30 39 25 16 7 354 350 350 352 351 340 351 349 350 350 353 355 2 8 13 11 16 17 14 9
183 164 121 143 125 125 121 117 114 109 96 91 107 109 101 88 78 63 51 40 40 26 15 359 353 351 352 346 349 350 356 358 1 358 355 359 3 8 8 15 20 26 26 28
121 160 133 117 114 118 114 112 111 107 108 107 96 107 101 99 82 64 47 47 35 23 12 360 357 351 348 344 347 352 5 5 6 9 359 2 3 23 9 359 15 18 23 23
123 114 99 112 125 116 115 117 108 101 96 94 106 105 106 96 80 59 38 341 23 1 2 351 351 356 344 346 349 351 7 7 9 11 5 5 7 8 24 14 8 5 10 19
114 99 114 122 118 119 118 117 109 106 104 91 98 103 105 100 85 66 60 56 27 19 10 4 356 353 345 347 350 4 25 17 8 14 15 11 7 16 13 21 21 12 7 12
107 112 121 125 130 127 124 119 115 114 105 102 104 103 102 96 84 69 68 57 49 28 355 356 0 342 342 351 351 9 19 19 24 20 17 22 17 19 17 22 22 28 20 13
121 128 134 121 115 113 114 117 118 117 116 109 108 115 109 100 82 63 38 29 52 21 343 352 335 344 358 4 10 15 18 23 18 31 27 23 26 22 22 23 23 33 31 18
113 120 115 121 121 115 109 110 114 116 114 110 105 97 90 90 101 70 25 13 39 16 1 346 1 4 13 14 22 23 25 27 27 29 35 27 23 24 25 25 27 27 29 28
111 114 114 113 116 117 121 117 110 108 110 116 108 111 117 115 117 103 51 51 37 37 360 6 7 14 18 18 23 23 25 20 29 28 32 28 27 25 21 18 23 25 25 29
98 102 105 106 111 118 116 115 119 117 113 111 112 99 91 98 133 105 71 66 342 9 13 11 11 15 16 20 21 28 27 29 30 30 29 24 23 21 23 18 17 23 20 30
110 111 111 113 109 107 114 122 126 131 134 127 117 122 118 133 117 132 72 70 349 30 23 12 20 9 18 22 29 24 23 32 30 25 27 24 23 15 13 12 14 17 26 24
114 115 117 119 120 114 108 110 119 122 122 116 111 118 106 100 94 62 230 133 282 40 28 20 15 19 30 25 31 27 30 23 26 33 31 25 21 28 13 10 29 21 17 11
118 122 117 122 129 128 108 115 124 130 129 135 127 145 154 163 152 106 82 319 101 57 42 21 26 39 33 35 40 34 26 24 21 23 36 33 19 12 23 18 2 6 9 4
121 120 115 110 116 125 135 178 145 148 137 143 123 148 134 121 7 332 120 139 134 81 57 38 39 49 48 37 37 45 31 24 18 7 14 17 24 13 12 3 3 356 10 7
127 126 130 135 142 150 148 157 136 127 120 122 129 159 152 156 145 206 164 138 144 155 80 32 60 53 49 49 51 43 39 38 19 36 23 15 10 12 1 359 354 4 13 3
144 151 155 159 157 160 160 160 158 160 139 146 181 180 159 159 139 136 135 158 127 140 172 239 39 53 46 39 52 45 36 29 38 30 44 28 20 15 348 353 4 6 4 15
132 142 153 162 160 172 170 170 160 178 171 167 167 203 168 159 149 153 149 141 132 143 155 222 224 91 143 4 19 26 27 15 18 47 38 33 34 27 22 24 24 15 18 27